SCP
2 2 3 3 3 3 3 3 2 2 2 2 1 1 2 2 2 3 3 3 3 3 3 2 2 2 2 1 1 1 1 1 1 1 1 1 1 1 1 1 1 1 1
2 2 3 3 3 3 4 3 3 3 3 2 2 3 3 3 3 3 3 3 3 3 3 3 2 2 2 2 2 1 1 1 1 1 1 1 1 1 1 1 1 1 1
3 3 3 4 4 4 4 4 3 3 4 3 4 4 4 4 4 4 3 3 3 3 3 3 3 3 2 2 2 2 1 1 1 1 1 1 1 1 1 1 1 1 1
4 4 3 4 4 4 4 4 4 4 5 5 5 5 4 4 4 4 3 3 3 2 3 4 3 3 2 2 2 2 2 2 2 2 1 1 2 2 1 1 1 1 1
5 5 4 4 5 4 4 4 4 5 6 6 5 4 4 4 4 4 3 3 3 3 3 3 3 3 3 2 2 2 2 2 2 2 2 2 2 2 1 1 1 1 1
7 7 6 6 6 5 4 4 4 5 6 5 4 3 3 3 3 3 4 4 4 3 3 3 3 3 3 2 2 2 1 1 2 1 1 1 1 1 1 1 1 1 1
9 8 7 6 6 5 4 4 4 4 5 5 4 3 3 2 3 3 3 3 3 3 3 3 4 3 3 2 2 2 2 1 1 1 1 1 1 1 1 1 1 1 1
9 8 7 7 6 5 4 3 3 4 4 4 4 3 2 2 2 2 2 2 2 2 2 2 2 2 2 1 1 2 2 2 2 1 1 1 1 1 1 1 1 1 1
8 7 7 7 6 5 4 3 3 4 4 4 5 4 3 2 2 1 1 1 1 1 1 1 1 1 1 1 1 1 1 1 2 1 1 1 1 0 0 1 1 1 1
7 7 6 5 5 4 3 3 3 3 3 4 6 6 4 2 2 1 0 0 0 0 0 0 0 0 0 0 0 0 1 1 1 1 1 0 0 0 0 0 0 0 0
6 5 4 3 2 2 1 2 2 3 3 4 6 6 3 1 1 1 0 0 0 0 0 0 0 0 0 0 0 0 0 0 0 0 0 0 0 0 0 0 0 0 0
3 3 2 1 1 1 1 1 2 2 2 2 3 3 2 0 0 0 0 0 0 0 0 0 0 0 0 0 0 0 0 0 0 0 0 0 0 0 0 0 0 0 0
1 1 0 0 0 0 1 1 1 1 1 1 1 1 0 0 0 0 0 0 0 0 0 0 0 0 0 0 0 0 0 0 0 0 0 0 0 0 0 0 0 0 0
0 0 0 0 0 0 0 0 0 0 0 0 0 0 0 0 0 0 0 0 0 0 0 0 0 0 0 0 0 0 0 0 0 0 0 0 0 0 0 0 0 0 0
0 0 0 0 0 0 0 0 0 0 0 0 0 0 0 0 0 0 0 0 0 0 0 0 0 0 0 0 0 0 0 0 0 0 0 0 0 0 0 0 0 0 0
0 0 0 0 0 0 0 0 0 0 0 0 0 0 0 0 0 0 0 0 0 0 0 0 0 0 0 0 0 0 0 0 0 0 0 0 0 0 0 0 0 0 0
0 0 0 0 0 0 0 0 0 0 0 0 0 0 0 0 0 0 0 0 0 0 0 0 0 0 0 0 0 0 0 0 0 0 0 0 0 0 0 0 0 0 0
0 0 0 0 0 0 0 0 0 0 0 0 0 0 0 0 0 0 0 0 0 0 0 0 0 0 0 0 0 0 0 0 0 0 0 0 0 0 0 0 0 0 0
0 0 0 0 0 0 0 0 0 0 0 0 0 0 0 0 0 0 0 0 0 0 0 0 0 0 0 0 0 0 0 0 0 0 0 0 0 0 0 0 0 0 0
0 0 0 0 0 0 0 0 0 0 0 0 0 0 0 0 0 0 0 0 0 0 0 0 0 0 0 0 0 0 0 0 0 0 0 0 0 0 0 0 0 0 0
0 0 0 0 0 0 0 0 0 0 0 0 0 0 0 0 0 0 0 0 0 0 0 0 0 0 0 0 0 0 0 0 0 0 0 0 0 0 0 0 0 0 0
0 0 0 0 0 0 0 0 0 0 0 0 0 0 0 0 0 0 0 0 0 0 0 0 0 0 0 0 0 0 0 0 0 0 0 0 0 0 0 0 0 0 0
0 0 0 0 0 0 0 0 0 0 0 0 0 0 0 0 0 0 0 0 0 0 0 0 0 0 0 0 0 0 0 0 0 0 0 0 0 0 0 0 0 0 0
0 0 0 0 0 0 0 0 0 0 0 0 0 0 0 0 0 0 0 0 0 0 0 0 0 0 0 0 0 0 0 0 0 0 0 0 0 0 0 0 0 0 0
0 0 0 0 0 0 0 0 0 0 0 0 0 0 0 0 0 0 0 0 0 0 0 0 0 0 0 0 0 0 0 0 0 0 0 0 0 0 0 0 0 0 0
0 0 0 0 0 0 0 0 0 0 0 0 0 0 0 0 0 0 0 0 0 0 0 0 0 0 0 0 0 0 0 0 0 0 0 0 0 0 0 0 0 0 0
Wind_Speed
2 2 2 3 3 3 4 3 3 2 2 2 3 4 3 2 1 3 5 11 12 12 13 13 12 11 10 9 8 7 7 6 6 5 4 4 3 3 2 2 2 2 2
3 2 1 1 1 1 1 1 1 1 1 2 3 3 3 3 1 3 5 7 9 10 11 12 12 11 11 10 9 8 7 6 6 5 4 4 4 4 3 3 3 3 2
3 3 1 2 1 0 1 1 2 2 2 2 3 3 3 3 3 1 3 5 6 8 10 10 10 10 10 10 9 8 8 7 6 5 5 4 4 4 3 3 3 3 3
3 3 1 1 1 1 0 0 0 1 1 2 2 2 2 2 3 2 1 2 4 5 7 9 9 9 9 9 9 8 8 7 7 6 5 5 4 4 3 4 4 3 3
2 2 1 1 1 1 0 1 0 1 1 2 2 2 2 1 2 3 3 2 1 3 4 7 9 9 9 9 8 8 7 7 6 5 5 5 4 4 4 4 5 5 5
2 1 1 0 0 1 1 0 0 0 1 1 3 2 2 2 1 1 3 2 1 2 3 4 4 5 6 7 6 6 5 5 4 4 4 4 4 4 5 6 6 6 7
2 2 1 2 2 1 1 1 1 0 1 1 1 2 2 2 2 1 1 1 2 2 2 2 2 2 2 4 4 4 3 2 2 3 3 4 4 4 5 6 7 8 8
5 4 4 3 3 2 3 3 2 1 1 0 1 1 2 2 2 1 0 1 2 2 2 2 2 2 2 3 4 6 4 3 2 2 3 4 4 5 5 6 8 8 9
9 8 7 6 5 4 3 3 3 2 1 0 0 1 2 2 1 0 1 2 2 2 2 2 2 3 2 4 5 6 7 6 5 5 5 5 6 6 7 7 8 9 11
11 10 9 8 7 5 5 5 4 3 2 1 1 1 1 1 1 1 1 1 1 1 1 2 2 3 3 4 6 8 7 6 5 5 6 7 7 8 9 9 10 11 11
11 11 10 9 8 7 8 8 7 6 4 3 2 1 1 1 2 1 1 1 1 1 1 1 1 1 1 3 4 7 7 5 4 4 6 7 8 9 10 11 11 12 13
9 11 11 10 9 8 8 8 8 9 7 7 5 4 3 2 2 1 1 1 1 1 1 1 0 0 1 2 4 8 6 3 1 2 5 8 9 11 12 13 13 14 15
8 10 10 10 9 9 9 8 9 9 8 8 7 5 4 4 3 2 2 2 2 1 1 1 1 1 1 3 4 5 4 4 4 5 6 9 11 12 13 14 14 15 16
8 9 9 9 10 9 9 8 8 7 7 7 9 7 5 5 4 4 3 3 3 2 2 2 1 0 1 3 4 4 3 5 6 8 9 11 12 13 14 14 14 15 16
7 8 8 8 8 8 8 7 7 7 6 6 6 7 5 4 5 4 3 3 3 4 4 3 2 1 1 1 4 2 2 5 8 11 12 13 14 14 14 15 15 15 16
7 7 8 7 7 7 7 6 5 5 5 5 4 5 5 4 4 4 3 3 3 3 4 3 3 3 2 3 3 2 4 8 10 13 14 13 14 14 15 16 16 16 16
6 6 5 5 6 6 5 4 4 4 5 4 4 4 4 3 4 4 4 4 3 3 4 4 4 4 3 3 4 3 5 5 6 12 12 13 14 15 16 16 17 17 17
5 5 5 5 5 5 4 5 5 5 4 4 4 5 5 4 4 4 4 4 3 3 3 5 5 5 5 4 4 5 6 7 5 9 10 13 15 15 15 16 16 16 15
5 4 4 5 5 6 7 7 6 5 5 4 4 4 4 4 4 4 5 5 4 5 4 4 6 5 4 5 4 5 6 5 7 8 9 10 12 14 15 16 16 16 15
4 4 4 5 6 8 8 9 9 6 5 4 4 3 4 4 4 5 5 5 5 5 5 5 5 5 4 4 3 4 5 4 5 7 6 7 9 12 14 15 16 15 14
5 4 4 5 5 6 8 9 9 8 7 6 5 4 4 3 2 3 5 5 6 5 6 6 6 6 4 5 4 4 5 5 5 4 3 5 5 4 5 9 11 12 12
4 4 4 5 6 6 6 9 9 8 8 6 5 5 5 1 2 5 7 9 8 7 7 7 7 7 7 6 5 5 5 5 5 3 4 6 5 5 4 3 4 7 9
3 3 3 4 6 5 6 8 11 8 8 5 4 4 6 5 4 6 8 10 9 11 11 8 8 8 8 6 6 6 6 6 6 6 5 6 5 4 4 2 5 7 9
2 2 3 3 4 4 4 8 13 8 6 5 5 4 4 3 6 7 8 9 8 7 7 6 7 8 8 5 5 6 7 7 7 5 3 4 4 4 5 3 6 8 9
2 2 2 3 4 4 3 7 10 7 5 6 6 5 5 4 5 8 8 8 9 7 8 9 9 10 12 12 8 4 6 5 6 5 2 2 3 4 5 3 2 7 10
2 3 3 3 4 4 1 5 9 6 6 6 5 3 4 4 7 8 7 8 9 8 9 10 9 8 8 9 9 6 5 5 5 4 2 2 3 3 4 3 3 2 4
Wind_Direction
204 182 164 157 188 186 178 197 225 249 253 291 293 292 298 315 101 119 145 166 168 172 176 180 188 192 194 194 195 195 197 199 198 196 196 198 200 206 214 220 225 225 227
163 144 135 133 277 351 69 153 296 324 339 320 317 321 333 332 17 125 147 163 171 176 179 183 188 191 194 194 193 193 195 195 193 191 191 196 203 207 213 220 230 235 235
139 135 171 156 204 180 74 38 349 353 335 318 309 315 329 339 0 29 147 162 168 180 181 179 182 187 189 191 191 191 191 189 186 186 188 190 196 204 210 217 221 221 222
155 153 186 187 177 136 124 172 264 311 321 310 321 331 351 358 348 349 317 177 167 174 179 178 180 183 187 192 193 192 193 192 192 192 193 195 199 202 206 213 216 219 223
162 154 176 147 114 128 140 290 88 296 312 323 311 324 340 346 344 346 331 339 128 153 156 175 181 182 185 190 194 197 198 195 194 196 200 205 209 212 217 221 222 225 227
136 138 136 54 22 60 74 17 321 16 349 332 307 309 315 311 322 355 323 329 44 103 132 151 169 180 182 191 192 192 193 195 192 204 221 230 237 239 237 238 237 235 236
93 95 87 64 45 37 30 14 327 307 290 316 288 284 285 279 271 257 303 343 26 54 70 100 124 132 149 146 143 145 157 169 195 231 246 261 268 265 257 253 252 246 242
54 60 57 58 48 41 35 15 336 296 292 341 274 277 287 275 260 245 15 36 40 40 42 76 100 108 119 122 109 109 92 85 60 352 319 316 311 299 286 272 263 258 251
51 51 53 57 50 49 40 22 358 321 289 299 243 260 268 274 310 16 27 51 44 37 31 41 73 73 97 107 114 95 89 69 51 27 4 347 334 324 308 294 290 278 268
50 49 50 53 51 45 41 30 28 22 11 329 326 8 325 346 308 302 15 51 49 49 36 27 51 61 69 88 102 108 98 78 51 18 356 344 332 322 313 305 295 289 284
50 50 52 54 53 51 48 43 39 40 36 27 18 17 359 355 352 301 313 13 6 8 37 44 63 77 106 125 120 114 108 91 56 13 347 335 325 316 312 309 303 296 290
55 51 53 52 51 50 49 47 48 49 44 42 36 36 33 22 1 1 346 338 344 340 330 311 266 152 131 105 119 129 133 136 145 318 317 314 311 308 306 303 300 295 291
57 51 52 52 49 47 47 46 48 46 41 45 41 32 27 30 13 7 8 352 339 318 306 268 223 192 168 129 128 154 186 209 225 248 273 287 294 296 297 297 297 297 295
65 59 58 57 54 51 50 49 49 44 38 38 40 34 22 23 15 16 7 349 337 330 313 300 300 196 95 110 149 190 235 232 237 240 248 260 273 280 283 287 290 292 293
71 64 61 59 54 50 47 48 50 43 39 35 31 29 21 13 12 360 355 351 345 338 330 333 349 343 44 102 173 233 266 257 247 240 244 250 259 267 273 279 283 284 285
68 65 62 60 57 51 45 44 48 38 38 30 25 29 20 7 356 349 343 340 342 336 325 333 327 357 1 330 288 293 284 281 264 254 252 252 254 258 263 269 275 279 281
76 75 71 69 65 57 46 39 45 41 36 26 18 19 12 1 1 343 343 343 347 354 329 320 329 329 325 310 302 292 288 278 272 268 257 246 246 249 254 262 267 272 275
75 75 69 64 61 55 38 29 24 30 26 23 15 8 1 2 359 351 350 342 342 328 319 315 314 309 310 301 282 275 284 286 286 285 261 245 244 248 252 256 260 262 264
74 68 62 59 52 44 33 19 14 18 16 11 8 360 351 0 2 359 338 337 335 336 325 310 304 301 294 288 291 292 294 292 293 292 272 253 251 253 253 254 255 256 257
81 68 58 54 56 46 32 16 360 359 359 353 350 343 345 6 8 349 329 339 335 326 313 303 294 294 292 304 315 312 307 298 297 301 306 297 269 258 256 257 256 256 256
63 58 57 57 61 58 31 15 352 349 346 341 342 341 342 344 1 305 319 331 324 320 317 311 311 312 320 333 327 316 309 309 297 288 307 302 296 283 271 261 255 253 253
45 43 42 54 56 52 31 12 356 338 327 330 339 338 326 298 301 280 288 290 286 293 302 305 304 310 314 320 319 313 312 316 310 311 319 302 299 292 279 263 235 238 243
43 39 34 63 82 67 20 359 349 325 311 318 326 327 332 359 8 352 331 310 291 278 264 266 282 292 301 308 315 316 313 309 297 294 298 292 288 284 286 279 213 232 244
24 23 32 63 99 82 19 355 341 319 311 325 329 327 333 7 31 358 329 319 312 307 290 268 261 274 286 299 308 300 296 296 290 286 285 284 296 304 309 281 232 234 244
5 358 34 59 89 102 24 355 346 319 339 345 346 1 359 23 20 348 326 318 318 317 319 319 290 278 279 280 274 286 292 299 305 307 313 293 305 314 300 290 250 241 254
349 1 34 53 74 92 69 352 348 341 351 343 346 3 30 2 341 334 323 314 312 319 326 318 306 292 280 273 262 240 259 284 299 304 332 317 306 324 311 305 315 297 271